Time,TemperatureF,DewpointF,PressureIn,WindDirection,WindDirectionDegrees,WindSpeedMPH,WindSpeedGustMPH,Humidity,HourlyPrecipIn,Conditions,Clouds,dailyrainin,SoftwareType,DateUTC
2013-01-26 00:09:00,7.7,6.6,29.78,WNW,292,0.0,-999.0,95,-99.99,,,0.00,Acu-Link.com,2013-01-26 05:09:00,
2013-01-26 00:25:00,7.5,6.4,29.77,West,270,0.0,-999.0,95,-99.99,,,0.00,Acu-Link.com,2013-01-26 05:25:00,
2013-01-26 00:40:00,7.3,6.4,29.79,WNW,292,0.0,-999.0,96,-99.99,,,0.00,Acu-Link.com,2013-01-26 05:40:00,
2013-01-26 00:55:00,7.0,6.1,29.78,West,270,0.0,-999.0,96,-99.99,,,0.00,Acu-Link.com,2013-01-26 05:55:00,
2013-01-26 01:10:00,7.0,6.1,29.78,NNW,337,0.0,-999.0,96,-99.99,,,0.00,Acu-Link.com,2013-01-26 06:10:00,
2013-01-26 01:25:00,7.0,6.6,29.79,NNW,337,0.0,-999.0,98,-99.99,,,0.00,Acu-Link.com,2013-01-26 06:25:00,
2013-01-26 01:40:00,6.8,6.4,29.78,North,0,0.0,-999.0,98,-99.99,,,0.00,Acu-Link.com,2013-01-26 06:40:00,
2013-01-26 01:55:00,6.4,6.0,29.78,NNW,337,0.0,-999.0,98,-99.99,,,0.00,Acu-Link.com,2013-01-26 06:55:00,
2013-01-26 02:10:00,6.8,6.4,29.78,WNW,292,0.0,-999.0,98,-99.99,,,0.00,Acu-Link.com,2013-01-26 07:10:00,
2013-01-26 02:25:00,6.8,6.4,29.77,WNW,292,0.0,-999.0,98,-99.99,,,0.00,Acu-Link.com,2013-01-26 07:25:00,
2013-01-26 02:41:00,6.4,6.0,29.77,NNW,337,0.0,-999.0,98,-99.99,,,0.00,Acu-Link.com,2013-01-26 07:41:00,
2013-01-26 02:56:00,5.9,5.0,29.76,WSW,247,0.0,-999.0,96,-99.99,,,0.00,Acu-Link.com,2013-01-26 07:56:00,
2013-01-26 03:11:00,6.3,5.9,29.76,WSW,247,0.0,-999.0,98,-99.99,,,0.00,Acu-Link.com,2013-01-26 08:11:00,
2013-01-26 03:26:00,7.9,7.5,29.76,North,0,0.0,-999.0,98,-99.99,,,0.00,Acu-Link.com,2013-01-26 08:26:00,
2013-01-26 03:41:00,8.2,7.8,29.76,West,270,0.0,-999.0,98,-99.99,,,0.00,Acu-Link.com,2013-01-26 08:41:00,
2013-01-26 03:56:00,8.1,7.7,29.76,West,270,0.0,-999.0,98,-99.99,,,0.00,Acu-Link.com,2013-01-26 08:56:00,
2013-01-26 04:16:00,8.1,7.7,29.76,NNW,337,0.0,-999.0,98,-99.99,,,0.00,Acu-Link.com,2013-01-26 09:16:00,
2013-01-26 04:31:00,7.9,7.5,29.76,NNW,337,0.0,-999.0,98,-99.99,,,0.00,Acu-Link.com,2013-01-26 09:31:00,
2013-01-26 04:47:00,7.7,7.3,29.77,West,270,0.0,-999.0,98,-99.99,,,0.00,Acu-Link.com,2013-01-26 09:47:00,
2013-01-26 05:02:00,7.3,6.9,29.78,West,270,0.0,-999.0,98,-99.99,,,0.00,Acu-Link.com,2013-01-26 10:02:00,
2013-01-26 05:17:00,7.2,6.5,29.79,West,270,0.0,-999.0,97,-99.99,,,0.00,Acu-Link.com,2013-01-26 10:17:00,
2013-01-26 05:32:00,6.8,6.1,29.79,West,270,0.0,-999.0,97,-99.99,,,0.00,Acu-Link.com,2013-01-26 10:32:00,
2013-01-26 05:47:00,7.2,6.8,29.79,West,270,0.0,-999.0,98,-99.99,,,0.00,Acu-Link.com,2013-01-26 10:47:00,
2013-01-26 06:02:00,6.8,6.4,29.81,WSW,247,0.0,-999.0,98,-99.99,,,0.00,Acu-Link.com,2013-01-26 11:02:00,
2013-01-26 06:17:00,6.6,6.2,29.80,West,270,0.0,-999.0,98,-99.99,,,0.00,Acu-Link.com,2013-01-26 11:17:00,
2013-01-26 06:32:00,7.2,6.8,29.81,West,270,0.0,-999.0,98,-99.99,,,0.00,Acu-Link.com,2013-01-26 11:32:00,
2013-01-26 06:48:00,8.2,7.8,29.81,NW,315,0.0,-999.0,98,-99.99,,,0.00,Acu-Link.com,2013-01-26 11:48:00,
2013-01-26 07:03:00,9.1,8.7,29.82,West,270,0.0,-999.0,98,-99.99,,,0.00,Acu-Link.com,2013-01-26 12:03:00,
2013-01-26 07:18:00,9.1,8.7,29.82,SW,225,0.0,-999.0,98,-99.99,,,0.00,Acu-Link.com,2013-01-26 12:18:00,
2013-01-26 07:33:00,9.3,8.9,29.83,West,270,0.0,-999.0,98,-99.99,,,0.00,Acu-Link.com,2013-01-26 12:33:00,
2013-01-26 07:48:00,9.9,9.5,29.84,SW,225,0.0,-999.0,98,-99.99,,,0.00,Acu-Link.com,2013-01-26 12:48:00,
2013-01-26 08:03:00,10.8,10.3,29.85,West,270,0.0,-999.0,98,-99.99,,,0.00,Acu-Link.com,2013-01-26 13:03:00,
2013-01-26 08:18:00,12.6,12.1,29.85,North,0,0.0,-999.0,98,-99.99,,,0.00,Acu-Link.com,2013-01-26 13:18:00,
2013-01-26 08:33:00,15.8,15.3,29.86,West,270,1.7,-999.0,98,-99.99,,,0.00,Acu-Link.com,2013-01-26 13:33:00,
2013-01-26 08:48:00,18.0,15.6,29.86,East,90,0.0,-999.0,90,-99.99,,,0.00,Acu-Link.com,2013-01-26 13:48:00,
2013-01-26 09:04:00,19.4,15.6,29.85,South,180,2.2,-999.0,85,-99.99,,,0.00,Acu-Link.com,2013-01-26 14:04:00,
2013-01-26 09:19:00,20.3,15.7,29.86,SSW,202,1.1,-999.0,82,-99.99,,,0.00,Acu-Link.com,2013-01-26 14:19:00,
2013-01-26 09:34:00,21.7,16.2,29.86,SSW,202,2.7,-999.0,79,-99.99,,,0.00,Acu-Link.com,2013-01-26 14:34:00,
2013-01-26 09:49:00,21.9,15.5,29.87,SSE,157,1.7,-999.0,76,-99.99,,,0.00,Acu-Link.com,2013-01-26 14:49:00,
2013-01-26 10:04:00,22.8,16.4,29.88,East,90,2.2,-999.0,76,-99.99,,,0.00,Acu-Link.com,2013-01-26 15:04:00,
2013-01-26 10:19:00,23.4,16.4,29.88,South,180,0.0,-999.0,74,-99.99,,,0.00,Acu-Link.com,2013-01-26 15:19:00,
2013-01-26 10:34:00,24.3,16.9,29.87,ENE,67,1.7,-999.0,73,-99.99,,,0.00,Acu-Link.com,2013-01-26 15:34:00,
2013-01-26 10:49:00,23.0,15.3,29.88,East,90,3.7,-999.0,72,-99.99,,,0.00,Acu-Link.com,2013-01-26 15:49:00,
2013-01-26 11:04:00,24.1,15.8,29.88,SSE,157,4.2,-999.0,70,-99.99,,,0.00,Acu-Link.com,2013-01-26 16:04:00,
2013-01-26 11:20:00,24.6,15.9,29.88,West,270,2.2,-999.0,69,-99.99,,,0.00,Acu-Link.com,2013-01-26 16:20:00,
2013-01-26 11:35:00,23.4,15.4,29.88,SSE,157,3.7,-999.0,71,-99.99,,,0.00,Acu-Link.com,2013-01-26 16:35:00,
2013-01-26 11:50:00,23.9,15.9,29.88,NE,45,4.7,-999.0,71,-99.99,,,0.00,Acu-Link.com,2013-01-26 16:50:00,
2013-01-26 12:05:00,27.1,19.0,29.87,NE,45,3.7,-999.0,71,-99.99,,,0.00,Acu-Link.com,2013-01-26 17:05:00,
2013-01-26 12:20:00,26.1,17.3,29.86,WSW,247,2.2,-999.0,69,-99.99,,,0.00,Acu-Link.com,2013-01-26 17:20:00,
2013-01-26 12:35:00,25.7,16.3,29.85,West,270,1.1,-999.0,67,-99.99,,,0.00,Acu-Link.com,2013-01-26 17:35:00,
2013-01-26 12:50:00,27.1,17.3,29.84,NE,45,2.7,-999.0,66,-99.99,,,0.01,Acu-Link.com,2013-01-26 17:50:00,
2013-01-26 13:05:00,26.2,15.7,29.84,SSE,157,2.2,-999.0,64,-99.99,,,0.01,Acu-Link.com,2013-01-26 18:05:00,
2013-01-26 13:20:00,26.8,16.3,29.85,North,0,1.7,-999.0,64,-99.99,,,0.02,Acu-Link.com,2013-01-26 18:20:00,
2013-01-26 13:35:00,27.0,16.5,29.85,SE,135,4.2,-999.0,64,-99.99,,,0.02,Acu-Link.com,2013-01-26 18:35:00,
2013-01-26 13:51:00,27.0,16.1,29.85,ESE,112,4.7,-999.0,63,-99.99,,,0.02,Acu-Link.com,2013-01-26 18:51:00,
2013-01-26 14:06:00,26.4,15.2,29.85,East,90,3.2,-999.0,62,-99.99,,,0.02,Acu-Link.com,2013-01-26 19:06:00,
2013-01-26 14:21:00,26.6,14.6,29.84,ESE,112,2.2,-999.0,60,-99.99,,,0.02,Acu-Link.com,2013-01-26 19:21:00,
2013-01-26 14:36:00,27.1,14.7,29.85,WSW,247,2.2,-999.0,59,-99.99,,,0.02,Acu-Link.com,2013-01-26 19:36:00,
2013-01-26 14:51:00,27.0,13.8,29.86,SE,135,4.7,-999.0,57,-99.99,,,0.02,Acu-Link.com,2013-01-26 19:51:00,
2013-01-26 15:06:00,27.3,14.5,29.87,ESE,112,3.7,-999.0,58,-99.99,,,0.02,Acu-Link.com,2013-01-26 20:06:00,
2013-01-26 15:21:00,28.2,14.5,29.87,West,270,4.2,-999.0,56,-99.99,,,0.02,Acu-Link.com,2013-01-26 20:21:00,
2013-01-26 15:37:00,27.7,14.1,29.87,NNE,22,3.2,-999.0,56,-99.99,,,0.02,Acu-Link.com,2013-01-26 20:37:00,
2013-01-26 15:52:00,27.5,13.9,29.88,SW,225,2.2,-999.0,56,-99.99,,,0.02,Acu-Link.com,2013-01-26 20:52:00,
2013-01-26 16:07:00,27.1,13.5,29.89,WSW,247,2.7,-999.0,56,-99.99,,,0.02,Acu-Link.com,2013-01-26 21:07:00,
2013-01-26 16:22:00,26.4,13.3,29.90,ESE,112,3.2,-999.0,57,-99.99,,,0.02,Acu-Link.com,2013-01-26 21:22:00,
2013-01-26 16:37:00,26.1,13.8,29.89,SW,225,4.2,-999.0,59,-99.99,,,0.02,Acu-Link.com,2013-01-26 21:37:00,
2013-01-26 16:52:00,25.3,13.8,29.90,SE,135,2.2,-999.0,61,-99.99,,,0.02,Acu-Link.com,2013-01-26 21:52:00,
2013-01-26 17:07:00,25.2,13.3,29.92,SSE,157,2.7,-999.0,60,-99.99,,,0.02,Acu-Link.com,2013-01-26 22:07:00,
2013-01-26 17:22:00,24.8,12.5,29.93,NE,45,2.2,-999.0,59,-99.99,,,0.02,Acu-Link.com,2013-01-26 22:22:00,
2013-01-26 17:38:00,24.4,12.9,29.94,East,90,5.3,-999.0,61,-99.99,,,0.02,Acu-Link.com,2013-01-26 22:38:00,
2013-01-26 17:53:00,24.1,13.0,29.95,ENE,67,6.3,-999.0,62,-99.99,,,0.02,Acu-Link.com,2013-01-26 22:53:00,
2013-01-26 18:08:00,23.4,12.7,29.97,ESE,112,1.1,-999.0,63,-99.99,,,0.02,Acu-Link.com,2013-01-26 23:08:00,
2013-01-26 18:23:00,23.4,12.7,29.96,SW,225,2.7,-999.0,63,-99.99,,,0.02,Acu-Link.com,2013-01-26 23:23:00,
2013-01-26 18:38:00,23.2,12.1,29.98,SW,225,1.7,-999.0,62,-99.99,,,0.02,Acu-Link.com,2013-01-26 23:38:00,
2013-01-26 18:53:00,22.3,12.0,29.99,ENE,67,1.7,-999.0,64,-99.99,,,0.02,Acu-Link.com,2013-01-26 23:53:00,
2013-01-26 19:08:00,22.3,12.0,29.99,NE,45,2.2,-999.0,64,-99.99,,,0.02,Acu-Link.com,2013-01-27 00:08:00,
2013-01-26 19:23:00,21.9,11.6,29.99,East,90,1.7,-999.0,64,-99.99,,,0.02,Acu-Link.com,2013-01-27 00:23:00,
2013-01-26 19:38:00,21.6,11.3,30.01,NE,45,1.1,-999.0,64,-99.99,,,0.02,Acu-Link.com,2013-01-27 00:38:00,
2013-01-26 19:54:00,21.4,11.1,30.02,ESE,112,3.2,-999.0,64,-99.99,,,0.02,Acu-Link.com,2013-01-27 00:54:00,
2013-01-26 20:09:00,21.2,11.0,30.01,East,90,2.2,-999.0,64,-99.99,,,0.02,Acu-Link.com,2013-01-27 01:09:00,
2013-01-26 20:24:00,20.7,11.2,30.03,NE,45,1.7,-999.0,66,-99.99,,,0.02,Acu-Link.com,2013-01-27 01:24:00,
2013-01-26 20:39:00,20.7,11.2,30.03,NE,45,2.2,-999.0,66,-99.99,,,0.02,Acu-Link.com,2013-01-27 01:39:00,
2013-01-26 20:54:00,21.0,11.5,30.04,NE,45,2.7,-999.0,66,-99.99,,,0.02,Acu-Link.com,2013-01-27 01:54:00,
2013-01-26 21:09:00,20.5,11.3,30.05,NNW,337,2.2,-999.0,67,-99.99,,,0.02,Acu-Link.com,2013-01-27 02:09:00,
2013-01-26 21:24:00,20.5,11.6,30.06,NNW,337,2.7,-999.0,68,-99.99,,,0.02,Acu-Link.com,2013-01-27 02:24:00,
2013-01-26 21:39:00,20.1,11.3,30.06,East,90,0.0,-999.0,68,-99.99,,,0.02,Acu-Link.com,2013-01-27 02:39:00,
2013-01-26 21:54:00,19.8,11.6,30.08,NNW,337,0.0,-999.0,70,-99.99,,,0.02,Acu-Link.com,2013-01-27 02:54:00,
2013-01-26 22:10:00,18.9,11.1,30.07,NE,45,1.7,-999.0,71,-99.99,,,0.02,Acu-Link.com,2013-01-27 03:10:00,
2013-01-26 22:25:00,18.3,11.1,30.08,NNW,337,0.0,-999.0,73,-99.99,,,0.02,Acu-Link.com,2013-01-27 03:25:00,
2013-01-26 22:40:00,18.9,11.7,30.10,SSE,157,0.0,-999.0,73,-99.99,,,0.02,Acu-Link.com,2013-01-27 03:40:00,
2013-01-26 22:55:00,17.8,10.9,30.09,SSW,202,1.1,-999.0,74,-99.99,,,0.02,Acu-Link.com,2013-01-27 03:55:00,
2013-01-26 23:10:00,18.5,11.9,30.09,NNW,337,1.1,-999.0,75,-99.99,,,0.02,Acu-Link.com,2013-01-27 04:10:00,
2013-01-26 23:25:00,17.1,10.6,30.10,SW,225,0.0,-999.0,75,-99.99,,,0.02,Acu-Link.com,2013-01-27 04:25:00,
2013-01-26 23:40:00,16.2,10.3,30.10,SW,225,0.0,-999.0,77,-99.99,,,0.02,Acu-Link.com,2013-01-27 04:40:00,
2013-01-26 23:55:00,15.6,10.3,30.11,WSW,247,0.0,-999.0,79,-99.99,,,0.02,Acu-Link.com,2013-01-27 04:55:00,